カタログに戻る

STARLINK-6049

運用中通信VLEO
NORAD 56796·PAYLOAD·🇺🇸 United States

打ち上げ May 31, 2023 から Vandenberg Space Force Base

Loading…

次のパス (今後24時間)

TLE

最新Source: CelesTrak SupGP

元期: Sep 14, 2026, 14:44 UTC

1 56796C 23078AF  26257.61437500 -.00037871  00000+0 -31741-2 0  2573
2 56796  70.0011 228.2060 0003667 267.4653 207.1860 14.98343097    12

AllMySatでSTARLINK-6049をリアルタイム追跡

Download on the App Store